Regional Weather Roundup
Issued by NWS Sioux Falls, SD

Home | Current Version | Previous Version | Graphics & Text | Print | Product List | Glossary Off
Versions: 1 2 3 4 5 6 7 8 9 10 11 12 13 14 15 16 17 18 19 20 21 22 23 24 25 26 27 28 29 30 31 32 33 34 35 36 37 38 39 40 41 42 43 44 45 46 47 48 49 50

000
ASUS43 KFSD 200302
RWRFSD

WEATHER ROUNDUP FOR SE SOUTH DAKOTA/SW MINNESOTA/NW IOWA
NATIONAL WEATHER SERVICE SIOUX FALLS SD
1000 PM CDT FRI SEP 19 2014

NOTE: "FAIR" INDICATES FEW OR NO CLOUDS BELOW 12,000 FEET WITH NO
SIGNIFICANT WEATHER AND OR OBSTRUCTIONS TO VISIBILITY.


SDZ038>040-050-052>070-200400-
SOUTHEAST SOUTH DAKOTA

CITY           SKY/WX    TMP DP  RH WIND       PRES   REMARKS
CHAMBERLAIN    PTCLDY    74  55  51 N7        29.78S
HURON          CLEAR     64  57  78 W5        29.74R
MADISON        MOCLDY    72  64  78 W6        29.74F
MITCHELL       PTCLDY    72  61  68 NW8       29.74S
SIOUX FALLS    CLOUDY    75  64  68 NW5       29.72F
WINNER         FAIR      70  56  61 CALM      29.81R
YANKTON        CLOUDY    75  64  69 SW5       29.73R
$$

MNZ071-072-080-081-089-090-097-098-200400-
SOUTHWEST MINNESOTA

CITY           SKY/WX    TMP DP  RH WIND       PRES   REMARKS
FAIRMONT       PTCLDY    73  59  60 S10       29.72F
JACKSON        PTCLDY    73  66  78 NW5       29.73F
LUVERNE        MOCLDY    73  64  73 N3        29.70F
MARSHALL       MOCLDY    72  64  78 SW8       29.70S
MONTEVIDEO     PTCLDY    72  64  78 W5        29.69S
PIPESTONE      CLOUDY    72  57  60 W3        29.73F
REDWOOD FALLS  MOCLDY    72  67  84 SW7       29.69S
TRACY          CLOUDY    74  67  81 CALM      29.72S
WINDOM         RAIN      73  66  78 NW9       29.72F
WORTHINGTON    CLOUDY    73  66  78 W7        29.72F
$$

IAZ001>003-012>014-020>022-031-032-NEZ013-014-SDZ071-200400-
NORTHWEST IOWA

CITY           SKY/WX    TMP DP  RH WIND       PRES   REMARKS
CHEROKEE       PTCLDY    74  70  88 S18       29.72F
DENISON        CLEAR     72  70  94 S21G26    29.77F
ESTHERVILLE    PTCLDY    73  67  81 S13       29.72F
LE MARS        MOCLDY    77  68  73 S12       29.72S
ORANGE CITY    MOCLDY    75  64  69 S17       29.69F
SHELDON        CLOUDY    75  66  73 E10G20    29.69F
SIOUX CITY     MOCLDY    76  67  73 S9        29.72F
SPENCER        MOCLDY    74  68  81 S10       29.72F
STORM LAKE     PTCLDY    72  72 100 S13G22    29.77F
$$

ABBREVIATIONS USED IN REMARKS
   TC - TEMPERATURE IN CELSIUS
  WCI - WIND CHILL INDEX
   HX - HEAT INDEX
  VSB - VISIBILITY



USA.gov is the U.S. government's official web portal to all federal, state and local government web resources and services.